Regional Weather Roundup
Issued by NWS

Home | Current Version | Previous Version | Text Only | Print | Product List | Glossary On
Versions: 1 2 3 4 5 6 7 8 9 10 11 12 13 14 15 16 17 18 19 20 21 22 23 24 25 26 27
000
ASUS44 KBMX 010510
RWRAL

ALABAMA REGIONAL WEATHER ROUNDUP
NATIONAL WEATHER SERVICE BIRMINGHAM AL
1200 AM CDT SUN MAY 01 2016

NOTE: "FAIR" INDICATES FEW OR NO CLOUDS BELOW 12,000 FEET
WITH NO SIGNIFICANT WEATHER AND/OR OBSTRUCTIONS TO VISIBILITY.

THE REMARK "TC" DENOTES TEMPERATURE IN DEGREES CELSIUS.

ALZ001>011-014-016>018-020-010600-
NORTH ALABAMA

CITY           SKY/WX    TMP DP  RH WIND       PRES   REMARKS
MUSCLE SHOALS  NOT AVBL
HUNTSVILLE     CLOUDY    70  66  87 SE3       29.92S
DECATUR        CLOUDY    67  67 100 CALM      29.93R
HALEYVILLE     FAIR      64  64 100 CALM      29.95R FOG
GADSDEN        CLOUDY    69  67  93 CALM      29.95R
$$

ALZ012-013-022-023-030>036-040>044-010600-
WEST CENTRAL ALABAMA

CITY           SKY/WX    TMP DP  RH WIND       PRES   REMARKS
TUSCALOOSA     PTCLDY    68  65  90 S3        29.93R
$$

ALZ015-024>027-033>036-040>044-010600-
CENTRAL ALABAMA

CITY           SKY/WX    TMP DP  RH WIND       PRES   REMARKS
BIRMINGHAM     CLOUDY    72  66  81 CALM      29.96R
MONTGOMERY     CLOUDY    76  66  71 CALM      29.92R
SHELBY CO ARPT PTCLDY    70  66  87 CALM      29.94R
MAXWELL AFB    CLOUDY    74  67  79 SW1       29.92R
GREENVILLE     FAIR      75  68  78 SW12G23   29.90R
$$

ALZ019-021-028-029-037-038-045>048-010600-
EAST CENTRAL ALABAMA

CITY           SKY/WX    TMP DP  RH WIND       PRES   REMARKS
ANNISTON       CLOUDY    74  65  73 CALM      29.95S
ALEXANDER CITY CLOUDY    75  70  83 CALM      29.95S
AUBURN         CLOUDY    74  66  76 S15       29.96R
$$

ALZ051>064-010600-
SOUTHWEST ALABAMA

CITY           SKY/WX    TMP DP  RH WIND       PRES   REMARKS
MOBILE         CLOUDY    68  68 100 SE5       29.92F
BROOKLEY FIELD PTCLDY    73  68  84 SE9       29.93S
EVERGREEN      CLOUDY    69  66  90 CALM      29.92R
$$

ALZ049-050-065>069-010600-
SOUTHEAST ALABAMA

CITY           SKY/WX    TMP DP  RH WIND       PRES   REMARKS
DOTHAN         CLOUDY    74  68  81 S9        30.00F
OZARK          CLOUDY    73  69  89 S6        29.95F
TROY           CLOUDY    75  68  78 S7G21     29.90F
EUFAULA        FAIR      75  67  76 S9        29.92F
$$




USA.gov is the U.S. government's official web portal to all federal, state and local government web resources and services.